Miscellaneous Local Product
Issued by NWS North Platte, NE

Home | Current Version | Previous Version | Text Only | Print | Product List | Glossary On
Versions: 1 2 3 4 5 6 7 8 9 10 11 12 13 14 15 16 17 18 19 20 21 22 23 24 25 26 27 28 29 30 31 32 33 34 35 36 37 38 39 40 41 42 43 44 45 46 47 48 49 50
000
AXUS43 KLBF 171810
MISLBF


WESTERN AND NORTH CENTRAL NEBRASKA HOURLY WEATHER ROUNDUP
NATIONAL WEATHER SERVICE NORTH PLATTE NE
1200 PM CST WED JAN 17 2018

NOTE: "FAIR" INDICATES FEW OR NO CLOUDS BELOW 12,000 FEET WITH NO
SIGNIFICANT WEATHER AND/OR OBSTRUCTIONS TO VISIBILITY.

NOTE: STATIONS NOT REPORTING VARIABLES SUCH AS SKY/WEATHER OR
PRESSURE ARE PROVIDED BY RAWS AND APRS NETWORKS AND ARE NOT UNDER
NATIONAL WEATHER SERVICE QUALITY CONTROL.

...OBSERVATIONS IN AND NEAR THE EASTERN PANHANDLE OF NEBRASKA...

CITY           SKY/WX    TMP DP  RH WIND       PRES   REMARKS
GORDON         FAIR      37  14  38 NW6       30.27F WCI  33
CRESCENT LAKE    N/A     30  13  48 NW6         N/A  WCI  24
$$

...OBSERVATIONS IN NORTHERN NEBRASKA AND FAR SOUTHERN SOUTH DAKOTA...

CITY           SKY/WX    TMP DP  RH WIND       PRES   REMARKS
AINSWORTH      SUNNY     33  17  51 W7        30.26F WCI  27
O`NEILL        SUNNY     29  14  52 SW14      30.29F WCI  19
THEDFORD       SUNNY     33  11  40 W7        30.29F WCI  27
ORD            SUNNY     25   9  50 SW10      30.35F WCI  15
ALBION         CLOUDY    27  11  52 SW10      30.36F WCI  17
VALENTINE NWR    N/A     34   9  35 W6          N/A  WCI  29
HALSEY           N/A     50   6  17 SW5         N/A
BUTTE            N/A     25  13  60 W12G18      N/A  WCI  14
CHAMBERS         N/A     27  10  47 SW9         N/A  WCI  18
EWING            N/A     28  16  59 SW12        N/A  WCI  18
$$

...OBSERVATIONS IN SOUTHWEST NEBRASKA AND FAR NORTHEAST COLORADO...

CITY           SKY/WX    TMP DP  RH WIND       PRES   REMARKS
WRAY           FAIR      37  12  35 W6        30.32S WCI  33
HOLYOKE        FAIR      43  12  28 NW8       30.30F
OGALLALA       SUNNY     32  17  53 W8        30.31F WCI  24
LEXINGTON      SUNNY     26  10  52 SW5       30.36F WCI  20
STAPLETON        N/A     29  14  52 CALM        N/A
GOTHENBURG       N/A     28  10  45 W3          N/A
CALLAWAY         N/A     27  14  58 SW6         N/A  WCI  21
$$

...OBSERVATIONS IN CENTRAL LINCOLN COUNTY AREA...

CITY           SKY/WX    TMP DP  RH WIND       PRES   REMARKS
N.P. DOWNTOWN    N/A     25  13  60 CALM        N/A
N.P. SOUTHEAST   N/A     24  13  62 CALM        N/A
N.P. HILLCREST   N/A     22  13  66 SW3         N/A
$$

...SOME OBSERVATIONS FROM AROUND THE REGION...

CITY           SKY/WX    TMP DP  RH WIND       PRES   REMARKS
BERTHOUD PASS  FAIR      14   3  62 NW6G20    30.39F WCI   5
SIOUX FALLS    CLOUDY    21  10  62 SW10      30.28F WCI  10
DALLAS         SUNNY     26   3  37 NE5       30.74F WCI  20
$$




USA.gov is the U.S. government's official web portal to all federal, state and local government web resources and services.